Temperature
15 16 16 16 14 13 15 16 18 19 20 21 21 20 19 19 19 19 18 18 18 18 18 18 18 17 17 17 17 17 17 17 17 17 17 17 17 16 16 16 16 16 16 15 15 15 15 15 15
15 15 16 15 13 14 15 16 18 19 21 21 21 20 19 18 19 18 18 18 18 18 18 18 17 17 17 17 17 17 17 17 17 17 17 17 16 16 16 16 16 16 16 16 15 15 15 15 15
15 15 15 13 13 14 17 18 18 20 21 21 20 20 19 18 18 18 19 18 18 18 18 17 17 17 17 17 17 17 17 17 17 17 17 16 16 16 16 16 15 15 15 15 15 15 15 15 15
15 15 15 13 14 15 17 18 18 19 21 21 20 18 18 19 19 19 18 18 18 18 18 17 17 17 17 17 17 17 17 16 16 16 16 16 16 16 16 15 15 15 15 15 15 15 15 15 15
15 15 13 13 14 15 16 18 19 19 20 20 19 17 18 18 19 19 18 18 18 18 17 17 17 17 17 17 16 16 16 16 16 16 16 16 16 16 15 15 15 15 15 15 15 15 15 15 15
14 13 12 13 14 16 17 19 19 19 19 19 19 17 17 18 18 18 18 18 18 18 17 17 17 17 17 17 16 16 16 16 16 16 16 15 15 15 15 15 15 15 15 15 15 15 15 15 15
13 12 12 14 15 16 18 19 19 18 18 19 19 16 17 17 18 18 18 18 17 17 17 17 16 16 16 16 16 16 16 16 16 15 15 15 15 15 15 15 15 15 15 15 15 15 15 15 14
14 12 14 14 15 16 18 19 19 19 18 19 20 17 17 17 17 17 17 17 17 17 17 17 16 16 16 16 16 16 16 16 15 15 15 15 15 15 15 15 15 15 15 15 15 14 14 14 14
14 12 13 14 15 17 18 18 19 19 19 19 19 19 19 18 17 17 16 16 17 17 17 17 16 16 16 16 16 16 15 15 15 15 15 15 15 15 15 15 15 14 14 14 14 14 14 14 14
13 12 13 15 16 17 17 17 18 18 17 17 18 19 18 17 17 17 17 17 17 17 16 16 16 16 16 16 16 15 15 15 15 15 15 15 15 15 14 14 14 14 14 14 14 14 14 14 14
13 12 14 15 16 17 17 17 18 17 16 17 18 18 17 17 17 17 17 17 17 17 17 16 16 16 16 16 16 15 15 15 15 15 15 14 14 14 14 14 14 14 14 14 14 14 14 14 14
12 13 14 15 16 16 16 16 17 17 18 18 19 18 17 17 17 17 17 17 17 16 16 16 16 16 16 16 16 15 15 15 15 15 14 14 14 14 14 14 14 14 14 13 13 13 13 13 13
12 13 14 15 16 16 16 16 16 16 18 18 18 17 17 17 17 17 17 17 16 16 16 16 16 16 16 16 15 15 15 15 15 15 14 14 14 14 14 14 14 13 13 13 13 13 13 13 13
12 13 14 15 15 15 15 15 15 16 17 17 17 17 17 17 17 17 16 16 16 16 16 16 16 16 16 16 15 15 15 15 15 14 14 14 14 14 14 14 13 13 13 13 13 13 13 13 13
13 12 12 13 14 14 15 14 14 16 16 16 16 17 17 17 17 17 17 16 16 16 16 16 16 16 16 15 15 15 15 15 15 14 14 14 14 14 13 13 13 13 13 13 13 13 13 12 12
12 12 11 12 13 14 14 13 14 16 15 15 16 16 16 16 16 17 17 16 16 16 16 16 16 16 15 15 15 15 15 15 14 14 14 14 13 13 13 13 13 13 13 13 12 12 12 12 12
10 10 10 12 12 12 12 12 13 15 15 14 15 15 16 16 16 16 16 16 16 16 16 16 15 15 15 15 15 15 14 14 14 14 14 13 13 13 13 13 13 12 12 12 12 12 12 12 12
9 9 10 11 12 12 12 12 12 14 14 14 14 15 15 15 16 16 16 16 16 16 16 16 15 15 15 15 14 14 14 14 14 13 13 13 13 13 12 12 12 12 12 12 12 12 11 11 11
10 10 11 11 12 12 11 11 12 13 13 13 13 14 15 15 15 16 16 15 15 15 15 15 15 15 15 14 14 14 14 14 13 13 13 13 13 12 12 12 12 12 12 12 11 11 11 11 10
10 10 10 11 12 12 11 11 11 11 12 13 13 14 14 15 15 15 15 15 15 15 15 15 15 15 14 14 14 14 14 13 13 13 12 12 12 12 12 12 12 12 11 11 11 11 10 10 10
10 10 10 11 11 12 11 11 11 11 12 13 14 14 14 14 14 14 15 15 14 14 15 15 14 14 14 14 14 13 13 12 12 12 12 12 12 12 12 12 11 11 11 11 11 10 10 10 9
9 10 11 11 10 9 10 9 10 11 11 11 12 13 14 14 14 14 14 14 14 14 14 14 14 14 14 13 13 13 13 12 12 12 12 12 11 11 11 11 11 11 11 10 10 10 9 9 9
10 11 10 10 10 9 9 9 9 10 10 11 11 12 13 14 14 14 14 14 14 14 14 14 13 13 13 13 13 13 12 12 12 12 12 11 11 11 11 11 11 10 10 10 10 9 9 9 8
10 10 9 8 8 8 9 8 9 9 10 11 10 12 13 13 13 14 14 14 13 13 13 13 13 13 13 13 12 12 12 12 12 11 11 11 11 11 11 10 10 10 10 10 9 9 9 8 8
9 8 8 8 7 8 8 9 9 10 10 11 11 12 12 13 13 13 13 13 13 13 13 12 12 12 12 12 12 12 12 12 11 11 11 11 11 11 10 10 10 9 9 9 9 8 8 8 8
8 8 7 8 7 7 8 8 9 10 10 11 12 12 12 12 12 12 12 13 13 12 12 12 12 12 12 12 12 11 11 11 11 11 11 11 10 10 10 10 9 9 9 9 8 8 8 8 7
8 8 8 7 7 7 7 8 9 10 9 9 10 10 11 11 12 12 12 12 12 12 12 12 11 11 11 11 11 11 11 10 10 10 10 10 10 10 9 9 9 9 8 8 8 8 7 7 7
8 8 7 7 7 8 8 8 8 9 9 9 8 9 10 10 11 11 11 11 11 11 11 11 11 11 11 11 11 11 10 10 10 10 10 10 10 9 9 9 8 8 8 8 7 7 7 7 6
7 7 7 7 6 7 7 8 9 8 8 8 8 9 9 10 10 10 10 11 11 11 11 11 10 10 10 10 10 10 10 10 10 9 9 9 9 9 8 8 8 8 7 7 7 7 6 6 6
7 7 6 6 6 6 6 8 9 7 8 8 8 8 9 9 9 9 9 10 10 10 10 10 10 10 10 10 10 10 9 9 9 9 9 8 8 8 8 8 7 7 7 6 6 6 6 6 6
Wind_Speed
4 3 3 3 5 3 5 6 4 2 1 1 2 7 9 6 4 5 3 9 13 13 14 16 17 16 16 16 16 15 15 14 14 14 13 13 12 12 12 11 11 11 11 11 11 10 10 10 10
2 1 3 4 4 3 6 6 6 6 5 3 3 6 7 4 3 7 5 10 14 14 15 15 17 17 17 16 16 15 15 14 14 13 13 12 12 11 11 11 11 11 10 10 10 10 9 9 9
1 1 3 4 4 7 6 5 7 4 3 2 3 5 6 6 5 6 8 13 13 12 14 16 18 17 17 16 15 15 14 14 14 13 12 12 11 11 11 10 10 10 10 9 9 9 8 8 8
2 3 3 2 7 7 6 5 4 2 0 3 5 5 3 1 5 7 12 14 13 10 13 16 18 17 17 16 15 15 14 14 13 12 12 11 10 10 10 10 10 9 9 9 8 8 7 7 7
3 4 2 3 7 6 6 6 3 3 2 1 4 6 3 4 6 12 14 14 14 10 12 16 17 17 17 15 15 14 14 13 13 12 11 11 10 10 10 9 9 8 8 8 7 7 7 7 6
2 3 4 6 7 5 6 6 3 2 2 2 5 6 2 1 9 11 12 13 13 12 11 14 17 17 16 16 15 14 14 13 12 12 11 10 10 9 9 8 8 8 7 7 7 6 6 6 6
4 4 5 6 5 5 6 3 4 4 3 3 6 7 3 3 7 10 11 11 11 11 10 10 13 15 15 15 15 14 13 12 11 11 10 10 10 9 8 8 7 7 7 7 6 6 5 5 5
5 4 4 5 5 6 4 2 3 5 4 2 5 9 7 7 7 10 10 10 10 9 9 8 10 12 12 13 14 14 13 12 11 10 10 10 9 8 8 7 7 7 6 6 5 5 4 4 3
3 3 6 6 6 5 2 2 1 1 4 2 2 5 7 11 11 12 9 7 8 9 7 8 7 9 10 11 12 12 12 11 11 9 10 10 8 7 6 6 6 6 5 5 4 4 3 2 2
4 6 8 4 4 3 1 1 2 3 3 2 4 4 8 11 13 13 12 11 10 10 8 8 8 8 9 9 9 9 9 9 9 8 9 8 7 6 5 5 6 5 4 4 3 2 2 2 2
6 8 5 4 3 1 1 1 1 6 3 5 6 8 9 10 11 12 11 10 10 10 9 9 9 8 8 6 8 7 7 7 7 8 8 8 7 5 4 4 3 3 3 2 1 1 1 1 1
6 6 6 4 3 1 1 1 1 3 6 5 8 11 10 11 11 12 11 9 8 9 9 9 9 8 8 7 6 6 5 5 5 7 8 7 4 3 3 3 3 3 2 2 1 1 1 2 2
7 5 5 6 4 3 2 3 3 4 4 3 6 8 10 10 9 8 8 8 8 9 9 9 9 9 8 7 6 6 5 5 6 7 7 8 5 3 3 3 3 3 3 2 2 1 1 2 2
6 6 6 6 6 4 4 5 3 6 3 4 7 8 9 9 9 7 7 7 8 8 8 8 9 9 9 7 6 6 6 7 7 6 7 8 7 5 4 2 2 2 3 3 3 2 1 1 1
3 3 5 7 6 5 3 7 8 8 4 5 7 7 7 7 8 9 10 9 9 9 8 8 9 8 9 8 7 6 6 7 5 6 7 8 8 7 5 3 2 2 3 3 3 2 2 1 2
3 3 6 6 7 6 7 11 9 7 7 8 7 7 7 7 8 8 8 8 8 8 8 8 8 8 8 7 6 5 6 6 5 6 6 7 8 8 5 3 2 3 4 3 2 1 1 1 1
4 7 8 6 7 6 8 9 7 6 9 10 9 8 7 7 6 6 7 8 8 9 9 7 7 8 8 7 6 6 5 5 5 6 5 6 7 8 6 3 3 4 3 2 2 2 1 1 2
9 8 8 9 6 7 8 9 8 5 8 10 9 8 8 8 8 7 7 7 7 8 8 8 8 8 7 5 5 4 4 3 4 4 5 6 6 7 6 4 3 4 3 2 2 2 2 1 1
6 7 7 7 5 6 10 11 11 8 7 9 9 9 9 9 7 6 6 6 6 6 7 8 8 8 7 6 5 5 4 4 3 3 5 6 6 7 6 3 3 3 3 2 2 2 2 1 1
7 6 5 3 3 5 8 11 10 9 9 11 12 12 11 8 5 5 6 6 7 7 8 8 9 9 8 7 6 5 5 4 3 3 3 5 6 6 5 5 4 3 3 3 3 2 2 1 2
10 9 7 5 2 1 2 7 8 7 7 7 9 10 10 11 10 8 7 7 7 8 8 9 9 9 8 7 5 4 3 2 1 2 2 3 5 5 5 5 4 4 3 3 3 3 3 1 1
10 8 8 6 4 4 4 5 8 7 7 9 9 8 9 9 8 8 8 8 8 8 7 7 8 8 8 8 8 8 6 5 4 4 3 3 4 4 5 5 5 4 3 3 3 2 2 3 1
7 5 6 6 6 3 4 4 8 5 8 10 9 9 9 9 9 9 9 9 7 7 6 6 7 7 7 8 9 8 6 5 4 3 4 3 2 3 4 5 5 4 3 3 3 2 2 2 2
4 4 2 2 2 6 8 7 7 6 10 8 9 8 9 8 8 8 7 6 5 5 5 6 7 6 7 8 8 9 9 7 6 5 4 3 2 2 3 4 4 4 3 3 3 3 3 2 2
5 5 3 2 3 7 6 7 9 8 8 10 11 10 9 8 7 7 7 7 6 6 6 6 7 6 7 7 7 8 9 9 9 7 6 5 3 2 3 4 4 3 3 3 3 3 2 3 3
9 9 7 6 6 4 4 8 8 7 5 6 7 7 7 7 7 8 8 8 8 8 7 7 7 6 6 7 7 7 7 6 6 6 6 6 5 4 4 4 4 4 3 3 3 2 2 2 2
7 7 5 3 2 2 5 6 6 2 0 2 4 5 7 7 7 7 7 7 7 7 7 8 7 6 5 6 6 6 6 6 6 5 5 4 4 4 4 4 4 3 3 3 3 2 2 2 2
5 6 5 5 5 5 5 5 5 4 4 3 3 5 6 5 5 5 5 5 5 5 5 5 6 6 5 5 6 6 5 6 5 5 5 4 4 4 4 4 3 3 3 3 3 2 2 2 2
5 5 4 5 4 5 4 6 4 6 6 5 4 4 6 6 5 5 4 4 4 4 4 4 4 4 4 4 5 5 5 5 5 4 4 4 4 4 4 4 3 3 2 2 2 2 2 2 1
5 6 6 5 5 4 3 5 4 2 2 3 3 3 3 4 4 4 4 4 4 4 4 4 4 4 4 4 4 5 5 5 5 4 4 4 4 4 4 4 3 2 2 2 2 2 2 2 2
Wind_Direction
301 356 75 60 64 66 237 243 228 232 207 188 115 110 113 112 143 157 145 141 138 142 146 144 143 138 134 130 128 125 122 119 116 113 111 109 108 108 106 104 103 101 98 96 95 92 90 89 89
36 56 68 68 111 183 250 241 227 224 195 155 98 95 91 85 95 119 127 144 139 141 143 144 142 138 134 131 129 127 125 122 120 116 114 111 108 108 109 108 105 102 99 96 93 92 90 88 89
66 112 100 101 163 197 224 228 212 227 215 149 79 65 105 131 138 146 150 143 134 136 141 145 143 140 136 133 132 130 128 125 123 121 118 115 112 109 110 112 108 105 101 98 95 92 90 90 88
89 78 73 127 223 228 219 225 201 185 24 77 109 75 71 129 161 145 137 137 133 134 139 145 144 142 139 137 135 134 132 129 127 124 122 119 116 113 112 111 109 109 107 103 98 94 91 93 89
85 103 133 222 237 247 239 241 215 171 159 104 112 104 68 349 110 125 136 139 138 138 140 146 145 143 141 140 138 137 136 133 132 129 127 125 121 118 118 116 114 113 114 109 104 96 92 90 86
101 104 154 219 235 250 254 240 213 178 157 115 109 113 128 99 122 134 137 141 142 143 140 146 145 144 144 143 142 140 139 137 136 134 132 131 129 125 124 123 121 118 116 114 110 103 99 93 87
146 146 193 212 225 242 245 225 186 176 169 182 137 118 145 172 147 137 134 135 137 138 136 139 145 145 145 145 144 143 142 141 140 139 138 136 133 131 130 127 125 122 121 121 115 107 102 101 89
165 151 210 216 210 231 233 193 191 168 182 172 128 140 173 191 147 127 125 128 134 139 142 138 141 142 144 146 148 147 147 145 144 143 142 140 138 135 135 133 132 130 127 125 121 110 102 98 82
143 159 213 212 203 224 243 162 263 150 111 63 90 164 173 148 130 123 122 124 138 147 153 149 145 145 146 146 151 150 150 149 148 148 147 141 138 137 138 141 139 136 133 130 124 117 107 87 53
161 200 219 221 209 208 280 184 184 102 80 60 48 68 119 134 137 143 151 156 159 164 167 162 159 152 149 152 149 148 149 150 149 149 150 147 146 146 145 152 152 150 146 143 134 128 90 58 10
186 206 219 259 271 263 315 300 182 136 173 185 163 154 145 145 149 157 166 168 171 169 169 171 169 159 154 148 147 147 147 147 150 154 155 151 146 142 139 138 148 145 140 120 112 83 45 31 354
206 226 213 245 268 281 283 294 294 190 206 186 167 161 159 164 171 173 174 174 170 167 173 173 170 164 160 153 151 152 148 147 153 162 161 149 137 131 134 134 139 132 132 117 92 71 23 0 336
225 237 233 240 247 241 257 263 257 248 234 173 155 164 175 178 180 181 173 168 163 168 173 173 168 167 164 156 158 157 157 157 161 160 163 159 145 148 136 135 138 137 129 122 103 80 50 22 2
218 227 246 242 238 235 227 262 247 245 201 166 172 184 192 191 187 181 177 177 177 176 176 174 171 170 163 166 168 165 160 157 156 156 160 157 150 144 141 134 120 123 135 136 128 119 95 32 14
204 219 267 245 223 220 190 263 236 233 193 192 205 204 200 204 195 191 189 183 182 179 174 172 174 169 166 168 168 161 156 153 152 159 160 156 150 145 140 137 134 132 139 125 107 91 72 40 15
171 196 238 247 204 200 176 245 247 226 199 210 214 214 213 216 206 200 192 185 179 172 171 173 170 166 168 167 163 157 151 150 152 156 154 156 154 149 138 141 147 141 128 111 108 89 66 35 14
180 205 218 246 208 184 189 240 253 221 200 215 216 213 213 217 221 210 193 185 179 173 168 168 164 167 169 166 159 152 147 149 148 147 145 153 157 154 143 144 142 139 115 107 112 79 83 44 5
195 200 208 216 216 185 209 240 255 233 205 214 217 217 211 212 218 207 191 181 175 172 166 165 166 167 163 157 145 140 141 153 142 144 148 152 153 152 144 136 136 131 124 119 113 97 74 69 14
186 188 208 221 221 194 220 239 247 242 223 220 221 217 216 217 218 198 183 171 161 167 168 168 167 170 162 162 163 165 176 177 173 165 154 154 151 149 142 143 135 134 145 151 141 123 84 43 35
218 216 218 251 225 206 232 250 248 235 222 216 213 213 212 207 202 192 178 171 172 175 178 176 174 175 174 174 177 177 173 174 176 165 149 153 154 156 152 151 157 152 143 133 135 124 121 68 52
224 212 211 211 234 242 248 274 253 249 230 221 214 208 202 197 195 193 185 184 177 182 184 183 180 176 174 166 152 138 118 103 122 151 174 168 158 160 156 157 156 155 155 162 166 155 146 157 11
227 214 205 205 184 238 188 255 259 233 235 225 218 210 206 201 194 191 188 185 186 191 185 178 178 175 172 165 162 161 168 175 189 182 179 169 157 158 160 159 155 158 160 164 174 170 165 151 176
215 202 200 205 195 237 211 221 273 223 225 229 219 213 210 204 194 192 192 188 185 182 177 175 172 173 171 168 169 167 168 173 167 155 155 161 161 160 162 161 157 161 164 172 169 167 165 170 177
165 111 70 59 134 234 215 199 264 223 215 214 216 213 207 202 197 194 188 176 174 169 169 168 167 174 172 168 170 171 170 167 160 163 169 172 167 160 162 157 155 160 163 171 173 168 170 178 174
159 137 141 184 215 238 196 203 246 239 221 206 209 210 204 194 186 182 178 177 176 171 172 170 164 173 175 170 173 176 176 173 174 176 177 173 171 179 185 166 163 166 169 170 162 163 180 184 185
187 173 176 188 204 242 197 220 248 255 233 208 204 197 185 185 183 182 183 183 181 178 174 169 166 169 174 174 176 176 173 173 178 179 176 179 185 189 178 168 166 165 167 168 160 169 190 186 198
169 196 181 143 165 199 235 263 292 291 313 182 172 167 176 182 179 177 178 178 178 176 176 171 166 166 172 176 171 170 171 171 175 176 171 174 174 171 162 159 161 163 158 161 164 177 194 188 206
159 157 144 164 178 217 243 239 231 223 233 220 180 174 177 170 165 164 166 167 170 168 164 160 163 167 168 173 176 170 170 171 170 163 165 166 166 158 155 156 156 154 157 163 162 180 191 183 222
158 174 168 169 188 182 218 254 227 210 212 199 199 185 170 164 160 157 151 143 138 134 137 140 147 149 149 154 158 155 158 155 147 151 159 161 155 153 154 157 156 162 173 170 169 207 206 197 239
182 179 165 177 210 195 193 263 305 237 199 168 167 156 148 143 142 141 138 129 126 128 129 132 135 140 147 148 146 149 143 139 141 147 152 150 147 149 151 148 146 156 162 162 183 212 222 213 237
Height
1507 1508 1510 1511 1515 1523 1521 1511 1501 1497 1495 1494 1494 1494 1496 1501 1505 1511 1508 1508 1511 1513 1516 1518 1521 1523 1524 1526 1527 1529 1530 1531 1532 1532 1533 1534 1534 1535 1535 1536 1536 1536 1537 1537 1537 1538 1538 1538 1538
1506 1508 1510 1511 1518 1526 1518 1505 1499 1494 1493 1493 1493 1494 1496 1500 1502 1504 1505 1509 1511 1513 1516 1518 1521 1523 1524 1526 1527 1529 1530 1531 1532 1533 1533 1534 1534 1535 1535 1536 1536 1537 1537 1537 1537 1538 1538 1538 1538
1505 1507 1510 1511 1517 1518 1509 1497 1494 1491 1491 1492 1494 1495 1497 1500 1502 1503 1505 1508 1511 1513 1516 1518 1520 1522 1524 1526 1527 1529 1530 1531 1532 1533 1533 1534 1535 1535 1536 1536 1536 1537 1537 1537 1538 1538 1538 1538 1538
1505 1508 1509 1513 1512 1505 1499 1493 1491 1490 1490 1491 1493 1497 1499 1502 1503 1504 1506 1509 1511 1513 1516 1518 1520 1522 1524 1526 1527 1528 1530 1531 1532 1533 1533 1534 1535 1535 1536 1536 1537 1537 1537 1538 1538 1538 1538 1538 1539
1503 1505 1510 1512 1507 1499 1493 1491 1490 1490 1490 1491 1492 1496 1499 1502 1503 1504 1506 1509 1511 1513 1515 1518 1520 1522 1524 1525 1527 1528 1529 1530 1531 1532 1533 1534 1535 1535 1536 1536 1537 1537 1537 1538 1538 1538 1538 1539 1539
1503 1503 1512 1512 1504 1496 1491 1489 1489 1490 1490 1491 1492 1496 1500 1502 1503 1505 1507 1509 1511 1513 1515 1518 1520 1522 1523 1525 1526 1528 1529 1530 1531 1532 1533 1534 1534 1535 1535 1536 1537 1537 1537 1537 1538 1538 1538 1538 1539
1501 1503 1506 1504 1500 1496 1490 1488 1488 1488 1489 1490 1491 1496 1499 1502 1503 1505 1507 1509 1511 1513 1515 1517 1519 1521 1523 1524 1526 1527 1528 1529 1530 1531 1532 1533 1534 1534 1535 1536 1536 1537 1537 1537 1538 1538 1538 1538 1538
1497 1501 1500 1499 1497 1493 1487 1487 1486 1487 1488 1490 1491 1493 1497 1500 1503 1505 1507 1510 1511 1513 1515 1517 1519 1521 1522 1524 1525 1526 1528 1529 1530 1531 1532 1532 1533 1534 1535 1535 1536 1536 1537 1537 1537 1537 1538 1538 1538
1495 1501 1500 1494 1492 1489 1485 1485 1486 1486 1487 1488 1490 1491 1494 1498 1501 1504 1507 1509 1511 1513 1515 1516 1518 1520 1521 1523 1524 1526 1527 1528 1529 1530 1531 1532 1532 1533 1534 1534 1535 1536 1536 1536 1537 1537 1537 1537 1537
1492 1497 1492 1487 1485 1485 1484 1484 1485 1486 1486 1488 1489 1491 1494 1497 1500 1502 1504 1506 1509 1511 1513 1515 1517 1519 1520 1522 1523 1525 1526 1527 1528 1529 1530 1531 1532 1532 1533 1534 1534 1535 1535 1536 1536 1536 1536 1536 1537
1487 1489 1486 1484 1483 1483 1483 1484 1484 1484 1486 1486 1487 1490 1493 1496 1498 1501 1503 1505 1507 1510 1512 1514 1516 1518 1519 1521 1522 1524 1525 1526 1527 1528 1529 1530 1531 1532 1532 1533 1533 1534 1534 1535 1535 1535 1535 1535 1535
1485 1483 1483 1483 1483 1483 1483 1483 1483 1483 1483 1484 1486 1488 1491 1494 1496 1499 1501 1503 1506 1508 1510 1512 1514 1516 1518 1519 1521 1522 1523 1525 1526 1527 1528 1529 1530 1530 1531 1532 1532 1533 1533 1533 1534 1534 1534 1534 1534
1482 1481 1481 1481 1482 1482 1482 1482 1482 1481 1482 1483 1485 1487 1489 1492 1494 1497 1500 1502 1504 1506 1508 1510 1512 1514 1516 1518 1519 1521 1522 1523 1525 1526 1527 1527 1528 1529 1530 1530 1531 1531 1532 1532 1532 1532 1533 1533 1533
1479 1480 1480 1480 1480 1480 1481 1481 1481 1478 1480 1481 1483 1485 1488 1489 1492 1495 1497 1499 1501 1504 1506 1508 1510 1512 1514 1516 1517 1519 1520 1522 1523 1524 1525 1526 1527 1528 1528 1529 1530 1530 1530 1531 1531 1531 1531 1531 1531
1477 1480 1479 1477 1478 1478 1480 1481 1477 1476 1478 1479 1480 1482 1485 1487 1489 1491 1493 1496 1499 1501 1503 1505 1508 1510 1512 1513 1515 1517 1518 1520 1521 1522 1524 1524 1525 1526 1527 1528 1528 1529 1529 1529 1529 1529 1530 1529 1529
1476 1480 1482 1476 1475 1476 1482 1481 1473 1474 1475 1476 1478 1480 1482 1484 1486 1488 1491 1493 1496 1498 1500 1503 1505 1507 1509 1511 1512 1514 1516 1517 1519 1520 1522 1523 1524 1525 1525 1526 1526 1527 1527 1528 1528 1528 1527 1527 1527
1478 1482 1480 1477 1473 1474 1477 1476 1470 1471 1472 1473 1475 1477 1479 1481 1483 1485 1488 1490 1492 1495 1497 1499 1502 1504 1506 1508 1510 1511 1513 1515 1517 1518 1519 1520 1522 1522 1523 1524 1525 1525 1525 1526 1526 1526 1526 1525 1525
1477 1478 1476 1476 1471 1472 1474 1473 1468 1468 1469 1470 1471 1473 1475 1477 1479 1482 1484 1487 1489 1492 1494 1496 1498 1501 1503 1505 1507 1509 1510 1512 1514 1515 1517 1518 1519 1520 1521 1522 1522 1523 1523 1523 1523 1523 1523 1523 1523
1469 1471 1473 1471 1468 1471 1472 1470 1467 1466 1467 1467 1468 1469 1471 1473 1476 1478 1481 1483 1486 1488 1490 1492 1495 1497 1499 1501 1503 1505 1507 1509 1511 1512 1514 1515 1516 1518 1519 1519 1520 1520 1521 1521 1521 1521 1521 1521 1521
1467 1470 1472 1469 1466 1469 1471 1469 1465 1463 1463 1462 1463 1465 1466 1469 1471 1474 1476 1479 1481 1483 1486 1488 1491 1493 1496 1498 1500 1502 1504 1506 1508 1509 1511 1513 1514 1515 1516 1516 1517 1518 1518 1518 1518 1519 1518 1518 1518
1465 1468 1470 1470 1467 1467 1470 1469 1464 1459 1458 1458 1459 1460 1462 1464 1466 1469 1472 1474 1477 1479 1481 1484 1487 1490 1492 1495 1497 1499 1501 1503 1505 1506 1508 1509 1511 1512 1513 1514 1514 1515 1515 1516 1516 1516 1516 1516 1516
1465 1462 1464 1467 1472 1476 1473 1478 1463 1458 1456 1455 1455 1456 1458 1460 1462 1465 1467 1469 1472 1475 1478 1481 1483 1486 1489 1491 1493 1495 1497 1498 1500 1502 1504 1506 1507 1509 1510 1511 1512 1512 1513 1513 1513 1514 1514 1514 1513
1459 1458 1462 1465 1471 1475 1474 1477 1464 1456 1455 1452 1451 1452 1453 1455 1458 1460 1463 1465 1469 1472 1475 1477 1480 1483 1485 1488 1490 1492 1494 1496 1498 1500 1501 1503 1504 1505 1507 1508 1508 1509 1510 1510 1510 1510 1511 1511 1510
1456 1460 1465 1469 1473 1477 1471 1474 1464 1456 1448 1447 1447 1448 1449 1452 1454 1457 1460 1463 1465 1469 1471 1474 1477 1479 1482 1484 1486 1488 1490 1492 1494 1496 1498 1499 1501 1502 1503 1504 1505 1506 1506 1507 1507 1507 1507 1507 1507
1456 1464 1473 1476 1478 1473 1466 1467 1457 1445 1441 1440 1441 1443 1445 1448 1451 1453 1456 1459 1462 1465 1468 1471 1473 1476 1478 1481 1483 1485 1487 1489 1490 1492 1494 1495 1497 1498 1499 1501 1501 1502 1503 1504 1504 1504 1504 1504 1503
1453 1458 1468 1472 1473 1471 1464 1463 1450 1439 1436 1436 1437 1439 1442 1445 1447 1450 1453 1456 1459 1462 1464 1467 1470 1472 1475 1477 1480 1482 1484 1486 1487 1489 1491 1492 1493 1494 1496 1497 1498 1499 1499 1500 1500 1500 1500 1500 1499
1452 1455 1457 1465 1468 1469 1464 1456 1446 1437 1436 1435 1436 1437 1439 1441 1444 1447 1449 1452 1455 1458 1461 1464 1467 1469 1472 1474 1476 1478 1480 1482 1484 1486 1488 1489 1490 1491 1492 1493 1494 1495 1496 1496 1496 1496 1496 1496 1495
1447 1450 1458 1464 1467 1465 1459 1455 1448 1440 1438 1436 1436 1436 1437 1439 1442 1445 1447 1450 1453 1456 1459 1462 1464 1466 1469 1471 1473 1475 1477 1479 1481 1482 1484 1485 1486 1487 1489 1490 1491 1491 1492 1492 1493 1492 1492 1492 1491
1448 1450 1452 1457 1461 1463 1459 1452 1437 1436 1434 1435 1435 1435 1436 1438 1440 1443 1446 1448 1451 1454 1456 1459 1461 1463 1465 1467 1469 1472 1473 1475 1477 1479 1480 1482 1483 1484 1485 1486 1487 1488 1488 1488 1488 1488 1488 1487 1487
1443 1445 1451 1456 1458 1459 1459 1451 1433 1433 1433 1433 1435 1435 1437 1438 1440 1442 1445 1447 1449 1451 1454 1456 1458 1461 1463 1465 1467 1468 1470 1472 1474 1475 1477 1478 1480 1481 1482 1483 1483 1484 1484 1484 1484 1484 1484 1483 1482